Regional Weather Roundup
Issued by NWS

Home | Current Version | Previous Version | Graphics & Text | Print | Product List | Glossary On
Versions: 1 2 3 4 5 6 7 8 9 10 11 12 13 14 15 16 17 18 19 20 21 22 23 24 25 26 27 28 29 30 31 32 33 34 35 36 37 38 39 40 41 42 43 44 45 46 47 48 49 50
000
ASUS43 KDTX 040601
RWRMI
MICHIGAN HOURLY REGIONAL WEATHER ROUNDUP
NATIONAL WEATHER SERVICE DETROIT/PONTIAC MI
100 AM EST SUN DEC 04 2016

NOTE: "FAIR" INDICATES FEW OR NO CLOUDS BELOW 12,000 FEET WITH NO
SIGNIFICANT WEATHER AND/OR OBSTRUCTION TO VISIBILITY.

MIZ047>049-052>055-059>063-066>070-074>076-081>083-040700-
SOUTHEAST LOWER MICHIGAN

CITY           SKY/WX    TMP DP  RH WIND       PRES   REMARKS
ADRIAN         CLOUDY    34  29  82 CALM      30.28F
6HR MIN TEMP:  34; 6HR MAX TEMP:  36;

ALMA           CLOUDY    34  30  83 W7        30.27F WCI  28
ANN ARBOR      CLOUDY    33  29  85 SW3       30.27S
BAD AXE        CLOUDY    35  31  86 SW6       30.27S WCI  30
CARO           CLOUDY    35  31  86 SW9       30.25F WCI  28
DETROIT CITY   CLOUDY    37  28  70 W5        30.28F WCI  33
6HR MIN TEMP:  37; 6HR MAX TEMP:  37;

DETROIT        CLOUDY    35  30  82 S6        30.29F WCI  30
6HR MIN TEMP:  35; 6HR MAX TEMP:  37;

FLINT          CLOUDY    35  28  75 W3        30.28S
6HR MIN TEMP:  35; 6HR MAX TEMP:  36;

GROSSE ILE     CLOUDY    37  28  71 CALM      30.28R
6HR MIN TEMP:  36; 6HR MAX TEMP:  37;

HILLSDALE      CLOUDY    32  28  86 CALM      30.25S
HOWELL         CLOUDY    34  29  83 CALM      30.26F

CITY           SKY/WX    TMP DP  RH WIND       PRES   REMARKS
JACKSON        CLOUDY    33  24  69 SE3       30.27R
6HR MIN TEMP:  33; 6HR MAX TEMP:  35;

LAMBERTVILLE   CLOUDY    36  30  80 CALM      30.28F
6HR MIN TEMP:  36; 6HR MAX TEMP:  38;

LANSING        CLOUDY    35  27  72 S3        30.28S
6HR MIN TEMP:  34; 6HR MAX TEMP:  36;

LAPEER         NOT AVBL
MASON          CLOUDY    33  30  88 CALM      30.27S
MONROE         CLOUDY    36  29  76 W6        30.29R WCI  31
MT. CLEMENS    CLOUDY    37  30  77 W5        30.26F WCI  33
6HR MIN TEMP:  37; 6HR MAX TEMP:  38;

PONTIAC        CLOUDY    34  28  79 CALM      30.25F
6HR MIN TEMP:  34; 6HR MAX TEMP:  35;

PORT HOPE        N/A     36  34  92 SW7       30.24S WCI  30
6HR MIN TEMP:  35; 6HR MAX TEMP:  37; 6HR PCP:  0.10;

PORT HURON     CLOUDY    36  32  87 CALM      30.27F
TRI CITIES     CLOUDY    35  31  85 SW7       30.28S WCI  29
6HR MIN TEMP:  35; 6HR MAX TEMP:  37;

MIDLAND        CLOUDY    35  29  78 CALM      30.27S
6HR MIN TEMP:  35; 6HR MAX TEMP:  38;

TROY           CLOUDY    37  27  67 SW3       30.29S
SAGINAW HB     CLOUDY    36  30  80 CALM      30.27S
$$
MIZ043>046-050>051-056>058-064>065-071>073-077>080-040700-
SOUTHWEST LOWER MICHIGAN

CITY           SKY/WX    TMP DP  RH WIND       PRES   REMARKS
BATTLE CREEK   CLOUDY    34  27  75 S3        30.26F
6HR MIN TEMP:  34; 6HR MAX TEMP:  35;

BENTON HARBOR  CLOUDY    34  25  69 S6        30.26F WCI  29
6HR MIN TEMP:  34; 6HR MAX TEMP:  36;

BIG RAPIDS     CLOUDY    33  26  76 CALM      30.24F
6HR MIN TEMP:  33; 6HR MAX TEMP:  35;

COLDWATER      CLOUDY    33  29  83 CALM      30.27S
6HR MIN TEMP:  33; 6HR MAX TEMP:  36;

FREMONT        CLOUDY    33  26  75 CALM      30.25S
HOLLAND        CLOUDY    35  29  78 SE5       30.25F WCI  31
6HR MIN TEMP:  34; 6HR MAX TEMP:  36;

GRAND RAPIDS   CLOUDY    34  28  79 SE3       30.26F
6HR MIN TEMP:  34; 6HR MAX TEMP:  36;

IONIA          CLOUDY    34  27  75 CALM      30.25F
6HR MIN TEMP:  34; 6HR MAX TEMP:  35;

KALAMAZOO      CLOUDY    35  23  61 S5        30.26F WCI  31
6HR MIN TEMP:  34; 6HR MAX TEMP:  36;

LUDINGTON      CLOUDY    33  29  85 SE3       30.24F
6HR MIN TEMP:  33; 6HR MAX TEMP:  35;

MARSHALL       CLOUDY    33  29  85 CALM      30.26F
6HR MIN TEMP:  33; 6HR MAX TEMP:  35;

MOUNT PLEASANT CLOUDY    34  28  78 W5        30.26F WCI  29
6HR MIN TEMP:  34; 6HR MAX TEMP:  36;

MUSKEGON       CLOUDY    35  28  75 E7        30.25F WCI  29
6HR MIN TEMP:  35; 6HR MAX TEMP:  36; 6HR PCP: TRACE;

SOUTH HAVEN    CLOUDY    35  28  75 S5        30.26S WCI  31
$$
MIZ016>042-040700-
NORTHERN LOWER MICHIGAN

CITY           SKY/WX    TMP DP  RH WIND       PRES   REMARKS
ALPENA         CLOUDY    34  30  85 CALM      30.25S
6HR MIN TEMP:  34; 6HR MAX TEMP:  37;

BEAVER ISLAND  LGT SNOW  33  33  99 E3        30.23S
6HR MIN TEMP:  33; 6HR MAX TEMP:  37;

BELLAIRE       CLOUDY    33  33  98 S5        30.25S WCI  29
6HR MIN TEMP:  32; 6HR MAX TEMP:  34;

CADILLAC       CLOUDY    31  28  88 SW5       30.21F WCI  26
CHARLEVOIX     FLURRIES  35  35 100 SE5       30.25F WCI  31
FRANKFORT      CLOUDY    34  32  90 CALM      30.24S
GAYLORD        CLOUDY    33  30  88 SW3       30.21S
6HR MIN TEMP:  33; 6HR MAX TEMP:  34;

GRAYLING       CLOUDY    33  32  96 CALM      30.24S
HARBOR SPRINGS CLOUDY    34  32  91 SE3       30.24S
HOUGHTON LAKE  CLOUDY    33  29  85 CALM      30.24S
6HR MIN TEMP:  33; 6HR MAX TEMP:  35;

MANISTEE       CLOUDY    33  27  78 S3        30.25S
OSCODA         CLOUDY    35  33  91 MISG      30.24F
6HR MIN TEMP:  35; 6HR MAX TEMP:  38;

PELLSTON       CLOUDY    35  31  85 CALM      30.24S
6HR MIN TEMP:  33; 6HR MAX TEMP:  36;

ROGERS CITY    CLOUDY    35  32  88 SW3       30.26R
TRAVERSE CITY  CLOUDY    35  31  85 CALM      30.24S
6HR MIN TEMP:  35; 6HR MAX TEMP:  36; 6HR PCP: TRACE;

$$
MIZ007>008-015-040700-
EASTERN UPPER MICHIGAN

CITY           SKY/WX    TMP DP  RH WIND       PRES   REMARKS
MACKINAC ISLAN CLOUDY    34  30  83 CALM      30.24R
6HR MIN TEMP:  34; 6HR MAX TEMP:  35;

NEWBERRY       CLOUDY    32  31  97 SE5       30.22R WCI  27
6HR MIN TEMP:  32; 6HR MAX TEMP:  32;

S. S. MARIE    CLOUDY    32  28  85 NE5       30.22F WCI  27
6HR MIN TEMP:  32; 6HR MAX TEMP:  34;

MUNISING         N/A     33  32  96 SW6       30.22R WCI  28
6HR MIN TEMP:  33; 6HR MAX TEMP:  34;

$$
MIZ004>006-011>014-085-040700-
CENTRAL UPPER MICHIGAN

CITY           SKY/WX    TMP DP  RH WIND       PRES   REMARKS
MANISTIQUE     LGT SNOW  32  31  94 CALM      30.22S
6HR MIN TEMP:  32; 6HR MAX TEMP:  33;

ESCANABA       CLOUDY    32  27  81 CALM      30.23F
6HR MIN TEMP:  32; 6HR MAX TEMP:  35;

MENOMINEE      CLOUDY    31  23  72 SW3       30.24F
6HR MIN TEMP:  30; 6HR MAX TEMP:  33;

SAWYER-GWINN   CLOUDY    31  28  90 S3        30.19S
6HR MIN TEMP:  31; 6HR MAX TEMP:  32;

$$
MIZ001>003-009>011-084-040700-
WESTERN UPPER MICHIGAN

CITY           SKY/WX    TMP DP  RH WIND       PRES   REMARKS
IRON MOUNTAIN  CLOUDY    30  25  81 CALM      30.17F
6HR MIN TEMP:  30; 6HR MAX TEMP:  31;

HOUGHTON       CLOUDY    31  25  78 CALM      30.16F
6HR MIN TEMP:  31; 6HR MAX TEMP:  32;

COPPER HARBOR    N/A     32  31  96 CALM      30.19F
6HR MIN TEMP:  32; 6HR MAX TEMP:  33; 6HR PCP:  0.01;

IRONWOOD       CLOUDY    27  23  85 S3        30.16F
6HR MIN TEMP:  27; 6HR MAX TEMP:  29; 6HR PCP: TRACE;

$$

ABBREVIATIONS USED IN REMARKS
   TC - TEMPERATURE IN CELSIUS
  WCI - WIND CHILL INDEX
   HX - HEAT INDEX
  VSB - VISIBILITY





USA.gov is the U.S. government's official web portal to all federal, state and local government web resources and services.